Tracking 27112 objects as of 26-Mar-2023
HD Live streaming from Space Station
objects crossing your sky now

STARLINK-3754

Track STARLINK-3754 now!
10-day predictions
STARLINK-3754 is classified as:


NORAD ID: 52350
Int'l Code: 2022-045V
Perigee: 546.2 km
Apogee: 547.8 km
Inclination: 53.2 °
Period: 95.4 minutes
Semi major axis: 6917 km
RCS: Unknown
Launch date: April 29, 2022
Source: United States (US)
Launch site: AIR FORCE EASTERN TEST RANGE (AFETR)
Your satellite tracking list
Your tracking list is empty




NASA's NSSDC Master Catalog

Two Line Element Set (TLE):
1 52350U 22045V   23085.18184895  .00008065  00000-0  52472-3 0  9992
2 52350  53.2179   5.2199 0001127  87.8650 272.2471 15.08803573 52816
Source of the keplerian elements: AFSPC